NANAKWA Weather Reports


time (UTC)temp
C
wind
direction
speed
KPH
gust
KPH
rain 1hr
cm
rain 24hr
cm
rain mn
cm
humidity
%
barometer
mb
20260506050651 0 202 22.5 30.6 0.00 0.00 0.00 1013.0
20260506043850 0 202 22.5 30.6 0.00 0.00 0.00 1013.0
20260506041050 0 202 22.5 30.6 0.00 0.00 0.00 1013.0
20260506034249 0 225 30.6 35.4 0.00 0.00 0.00 1012.0
20260506031449 0 225 30.6 35.4 0.00 0.00 0.00 1012.0
20260506024648 0 225 27.4 33.8 0.00 0.00 0.00 1012.0
20260506021847 0 225 27.4 33.8 0.00 0.00 0.00 1012.0
20260506015047 0 202 29.0 30.6 0.00 0.00 0.00 1012.0
20260506012246 0 202 29.0 30.6 0.00 0.00 0.00 1012.0
20260506005446 0 225 25.7 29.0 0.00 0.00 0.00 1012.0
20260506002645 0 225 25.7 29.0 0.00 0.00 0.00 1012.0
20260505235844 0 225 17.7 24.1 0.00 0.00 0.00 1012.0
20260505233044 0 225 17.7 24.1 0.00 0.00 0.00 1012.0
20260505230243 0 202 8.0 11.3 0.00 0.00 0.00 1013.0
20260505223442 0 202 8.0 11.3 0.00 0.00 0.00 1013.0
20260505220642 0 360 0.0 0.0 0.00 0.00 0.00 1013.0
20260505213841 0 360 0.0 0.0 0.00 0.00 0.00 1013.0
20260505211040 0 360 0.0 0.0 0.00 0.00 0.00 1013.0
20260505204240 0 360 0.0 0.0 0.00 0.00 0.00 1014.0
20260505201439 0 360 0.0 0.0 0.00 0.00 0.00 1014.0
20260505194638 0 360 0.0 0.0 0.00 0.00 0.00 1014.0
20260505184536 0 360 0.0 0.0 0.00 0.00 0.00 1014.0
20260505181734 0 360 0.0 0.0 0.00 0.00 0.00 1014.0
20260505174933 0 0 9.7 12.9 0.00 0.00 0.00 1014.0
20260505172132 0 0 9.7 12.9 0.00 0.00 0.00 1014.0
20260505165330 0 22 14.5 16.1 0.00 0.00 0.00 1014.0
20260505162529 0 22 14.5 16.1 0.00 0.00 0.00 1014.0
20260505152926 0 45 16.1 19.3 0.00 0.00 0.00 1014.0
20260505150124 0 22 9.7 12.9 0.00 0.00 0.00 1014.0
20260505140522 0 22 14.5 16.1 0.00 0.00 0.00 1013.0
20260505124117 0 22 12.9 16.1 0.00 0.00 0.00 1013.0
20260505121316 0 22 12.9 16.1 0.00 0.00 0.00 1013.0
20260505114514 0 0 9.7 12.9 0.00 0.00 0.00 1013.0
20260505111713 0 0 9.7 12.9 0.00 0.00 0.00 1013.0
20260505101608 0 22 14.5 17.7 0.00 0.00 0.00 1012.0
20260505094807 0 0 8.0 11.3 0.00 0.00 0.00 1012.0
20260505092005 0 0 8.0 11.3 0.00 0.00 0.00 1012.0
20260505085203 0 67 4.8 8.0 0.00 0.00 0.00 1012.0
20260505082403 0 67 4.8 8.0 0.00 0.00 0.00 1012.0
20260505075602 0 45 3.2 8.0 0.00 0.00 0.00 1012.0
20260505072800 0 45 3.2 8.0 0.00 0.00 0.00 1012.0
20260505065959 0 180 1.6 4.8 0.00 0.00 0.00 1011.0
20260505063158 0 180 1.6 4.8 0.00 0.00 0.00 1011.0
20260505060356 0 180 4.8 6.4 0.00 0.00 0.00 1011.0